Total_Precipitation_Accumulation
3.98 4.20 4.11 4.15 3.90 4.12 4.49 4.66 4.22 4.25 4.03 3.89 3.66 3.40 3.39 3.11 2.81 2.69 2.79 2.85 2.69 2.63 2.90 3.09 2.99 2.97 3.02 2.78 2.53 2.24 2.04 2.01 1.84 1.61 1.46 1.44 1.39 1.28 1.23 1.12 1.10 1.01 0.93
3.53 3.66 3.59 3.71 3.61 3.75 3.92 3.95 3.91 4.25 4.22 4.05 3.67 3.34 3.23 3.21 3.03 2.82 3.01 3.03 2.96 2.67 2.76 3.19 3.46 3.49 3.58 3.42 3.11 2.74 2.44 2.21 1.93 1.63 1.50 1.50 1.43 1.39 1.46 1.47 1.51 1.19 1.02
3.19 3.21 3.28 3.32 3.40 3.35 3.47 3.50 3.56 3.87 3.99 3.90 3.67 3.36 3.19 3.22 3.11 3.05 2.96 3.04 2.97 2.92 2.84 2.99 3.31 3.45 3.75 3.95 3.81 3.34 2.94 2.51 2.08 1.68 1.43 1.39 1.37 1.27 1.33 1.41 1.46 1.29 1.16
2.69 2.82 2.78 2.78 2.87 2.88 3.02 3.31 3.36 3.63 3.91 4.00 3.95 3.55 3.45 3.41 3.17 3.19 3.05 3.05 3.33 3.03 3.21 3.37 3.35 3.28 3.70 4.17 4.40 4.25 3.75 2.99 2.36 1.95 1.67 1.50 1.44 1.36 1.30 1.33 1.34 1.33 1.21
2.54 2.65 2.76 2.83 2.52 2.61 2.81 2.72 3.16 3.46 3.80 3.88 3.44 3.48 3.28 3.21 3.23 3.00 3.06 2.96 3.18 3.27 3.45 3.46 3.48 3.35 3.72 4.54 5.17 5.38 4.86 3.89 3.07 2.59 2.35 2.14 1.88 1.57 1.42 1.42 1.39 1.37 1.29
2.60 2.72 2.60 2.45 2.25 2.48 2.87 3.04 3.50 3.56 3.54 3.55 2.98 3.20 3.01 2.68 2.81 2.97 2.84 2.94 2.99 2.79 3.11 3.47 3.69 3.20 3.57 4.27 4.83 5.33 5.57 5.17 4.34 3.58 3.21 2.94 2.65 2.12 1.62 1.46 1.46 1.45 1.37
2.75 2.82 2.56 2.74 2.41 2.47 2.64 2.79 3.14 3.35 3.32 3.29 3.58 3.63 3.16 2.68 2.68 2.62 2.52 2.79 2.82 2.81 3.19 3.67 3.81 3.63 3.21 3.04 3.21 3.95 4.96 5.67 5.57 4.78 4.20 3.73 3.36 2.76 2.11 1.73 1.53 1.45 1.47
2.71 2.52 2.70 2.51 2.48 2.72 2.76 2.91 3.17 3.29 3.26 3.34 3.53 3.88 3.61 3.51 2.96 2.22 2.44 2.58 2.68 2.92 2.95 3.08 3.42 3.74 3.35 3.33 2.58 2.65 3.61 4.55 5.44 5.50 4.78 3.99 3.66 3.35 2.84 2.38 2.03 1.73 1.61
2.52 2.59 2.54 2.62 2.81 2.52 2.78 2.99 3.03 3.28 3.39 3.26 3.23 3.67 3.66 3.57 3.06 2.40 2.25 2.33 2.56 2.87 2.87 2.97 2.77 3.04 3.28 3.62 3.36 2.65 2.72 3.06 4.13 5.29 5.36 4.55 3.76 3.21 3.01 2.90 2.69 2.30 1.98
2.40 2.42 2.56 2.88 3.04 2.78 3.00 2.56 2.75 3.12 3.35 3.27 3.27 3.05 2.90 2.98 3.17 3.03 2.58 2.31 2.44 2.57 2.65 2.65 2.75 3.02 3.20 3.53 3.51 2.66 2.06 2.14 2.92 4.19 5.07 4.97 4.32 3.53 3.18 3.26 3.59 3.54 2.99
2.83 2.49 2.49 2.79 2.99 2.99 3.09 2.92 3.15 2.96 2.91 2.93 3.03 3.03 2.96 2.81 2.59 2.80 2.84 2.65 2.51 2.21 2.16 2.22 2.40 2.59 2.66 3.03 3.35 2.59 2.11 2.06 2.24 2.85 3.50 3.97 4.05 3.83 3.55 3.67 4.30 4.73 4.58
2.81 2.56 2.54 2.87 2.92 2.95 3.13 3.01 2.99 2.86 2.90 2.92 2.82 2.72 2.99 2.97 2.77 2.85 2.61 2.56 2.48 2.00 1.84 1.92 2.01 2.13 2.31 2.58 2.54 2.38 2.41 2.42 2.22 2.19 2.29 2.55 2.97 3.30 3.61 3.86 4.29 4.79 5.08
2.39 2.50 2.65 2.98 2.94 2.93 2.91 3.00 2.93 2.94 3.03 3.06 2.91 2.73 2.73 2.76 2.80 2.80 2.74 2.40 2.26 2.00 1.97 1.87 1.83 2.09 2.26 2.77 2.94 2.73 2.60 2.73 2.33 2.04 1.93 1.91 2.02 2.31 2.66 3.08 3.64 4.20 4.71
2.37 2.47 2.62 2.60 2.59 2.68 2.59 2.90 2.72 2.71 2.85 2.90 2.74 3.07 2.96 2.58 2.73 2.79 2.92 3.12 2.88 2.55 2.44 2.26 2.16 2.34 2.61 2.87 3.21 3.04 2.57 2.44 2.11 1.96 1.86 1.78 1.78 1.81 1.93 2.10 2.41 2.82 3.19
2.29 2.42 2.45 2.52 2.55 2.56 2.60 2.83 2.74 2.76 2.95 2.78 2.76 3.18 2.98 2.60 2.59 2.67 2.88 3.22 3.49 3.08 2.72 2.62 2.62 2.67 2.78 2.82 3.00 2.72 2.46 2.38 2.11 1.90 1.82 1.80 1.78 1.71 1.67 1.67 1.74 1.91 2.09
2.12 2.28 2.35 2.45 2.51 2.48 2.57 2.74 2.60 2.79 2.87 2.77 2.79 2.88 2.81 2.59 2.63 2.72 2.90 3.14 3.42 3.35 2.89 2.59 2.79 2.83 2.72 2.51 2.81 2.67 2.40 2.31 2.03 1.82 1.65 1.62 1.66 1.72 1.74 1.74 1.70 1.73 1.78
2.10 2.23 2.33 2.41 2.43 2.46 2.61 2.71 2.55 2.70 2.70 2.81 2.74 2.70 2.65 2.87 2.93 2.77 2.93 3.06 3.29 3.52 3.24 2.78 2.88 2.89 2.78 2.55 2.51 2.44 2.32 2.28 2.07 2.02 1.78 1.66 1.59 1.58 1.60 1.64 1.72 1.76 1.74
2.20 2.28 2.38 2.48 2.39 2.48 2.64 2.58 2.56 2.62 2.68 2.67 2.77 2.96 2.89 3.06 3.08 3.03 3.22 3.22 3.30 3.55 3.45 3.13 3.00 3.03 2.90 2.74 2.65 2.41 2.07 1.98 1.98 2.16 1.97 1.80 1.69 1.63 1.57 1.54 1.54 1.51 1.50
2.34 2.32 2.30 2.38 2.53 2.70 2.72 2.56 2.55 2.54 2.46 2.37 2.55 2.82 3.12 3.58 3.43 3.26 3.15 3.08 3.11 3.19 3.41 3.14 2.89 3.10 2.95 2.83 2.77 2.40 2.12 2.07 1.75 1.83 1.87 1.73 1.58 1.46 1.39 1.36 1.35 1.32 1.28
2.34 2.41 2.48 2.50 2.58 2.62 2.58 2.57 2.61 2.61 2.56 2.42 2.43 2.55 2.72 3.03 3.18 3.32 3.12 3.02 3.10 3.19 3.31 3.22 3.13 3.34 3.39 3.21 2.99 2.59 2.40 2.25 1.99 1.67 1.71 1.62 1.51 1.42 1.34 1.29 1.26 1.25 1.25
2.44 2.65 2.69 2.66 2.65 2.60 2.42 2.61 2.74 2.62 2.70 2.60 2.53 2.46 2.30 2.43 2.62 2.82 2.68 3.00 3.19 3.14 3.21 3.26 3.35 3.71 3.71 3.49 2.95 2.68 2.58 2.45 2.18 1.81 1.74 1.54 1.45 1.33 1.30 1.33 1.30 1.26 1.23
2.96 3.01 2.87 2.81 2.74 2.48 2.65 2.70 2.72 2.74 2.83 2.74 2.63 2.57 2.38 2.23 2.21 2.34 2.42 2.64 2.91 2.94 3.02 3.18 3.27 3.44 3.49 3.42 3.18 2.89 2.65 2.50 2.21 1.92 1.92 1.76 1.59 1.49 1.36 1.27 1.39 1.39 1.36
3.07 3.08 3.13 3.09 2.96 3.02 3.03 2.68 2.62 2.61 2.65 2.62 2.77 2.84 2.40 2.01 2.22 2.18 2.27 2.29 2.22 2.38 2.58 2.79 2.95 3.00 3.31 3.44 3.46 3.02 2.84 2.64 2.29 2.11 2.15 1.96 1.83 1.64 1.42 1.35 1.48 1.36 1.35
2.99 2.94 2.88 2.82 2.77 2.75 2.83 2.56 2.50 2.37 2.38 2.39 2.43 2.45 2.40 2.24 2.17 2.19 2.16 2.02 1.86 1.86 2.00 2.07 2.17 2.44 2.81 3.31 3.62 3.36 3.23 3.03 2.66 2.33 2.14 2.00 1.86 1.72 1.52 1.44 1.52 1.38 1.30
2.89 2.84 2.79 2.78 2.68 2.64 2.70 2.50 2.46 2.27 2.22 2.13 2.11 2.12 2.13 2.00 2.08 2.05 1.95 1.89 1.82 1.71 1.73 1.82 1.79 1.92 2.24 2.66 3.18 3.40 3.15 2.80 2.47 2.15 2.06 1.93 1.75 1.82 1.78 1.63 1.56 1.61 1.42
3.05 3.01 2.95 2.93 2.85 2.77 2.89 2.63 2.49 2.27 2.23 2.22 2.31 2.27 2.22 2.05 2.04 1.93 1.76 1.77 1.63 1.52 1.64 1.64 1.57 1.59 1.70 2.04 2.56 2.74 2.87 2.71 2.40 2.12 1.81 1.85 1.79 1.92 1.94 1.66 1.51 1.51 1.46